| time (UTC) | temp F | wind direction | speed MPH | gust MPH | rain 1hr in | rain 24hr in | rain mn in | humidity % | barometer mb |
| 20260503032205 | 50 | 239 | 0.0 | 1.0 | 0.00 | 0.00 | 0.00 | 62 | 1018.5 |
| 20260503031724 | 50 | 239 | 0.0 | 1.0 | 0.00 | 0.00 | 0.00 | 62 | 1018.5 |
| 20260503031221 | 51 | 238 | 0.0 | 1.0 | 0.00 | 0.00 | 0.00 | 61 | 1018.5 |
| 20260503030718 | 51 | 239 | 0.0 | 1.0 | 0.00 | 0.00 | 0.00 | 61 | 1018.4 |
| 20260503030236 | 51 | 238 | 0.0 | 1.0 | 0.00 | 0.00 | 0.00 | 60 | 1018.3 |
| 20260503025714 | 51 | 238 | 0.0 | 1.0 | 0.00 | 0.00 | 0.00 | 60 | 1018.3 |
| 20260503025233 | 52 | 281 | 0.0 | 1.0 | 0.00 | 0.00 | 0.00 | 60 | 1018.1 |
| 20260503024730 | 52 | 281 | 0.0 | 1.0 | 0.00 | 0.00 | 0.00 | 60 | 1018.1 |
| 20260503024228 | 52 | 281 | 0.0 | 2.0 | 0.00 | 0.00 | 0.00 | 60 | 1018.2 |
| 20260503023725 | 53 | 50 | 0.0 | 2.0 | 0.00 | 0.00 | 0.00 | 59 | 1018.1 |
| 20260503023223 | 53 | 257 | 0.0 | 1.0 | 0.00 | 0.00 | 0.00 | 58 | 1018.1 |
| 20260503022720 | 53 | 254 | 0.0 | 3.0 | 0.00 | 0.00 | 0.00 | 57 | 1018.0 |
| 20260503022217 | 54 | 203 | 0.0 | 3.0 | 0.00 | 0.00 | 0.00 | 56 | 1018.0 |
| 20260503021715 | 54 | 276 | 0.0 | 3.0 | 0.00 | 0.00 | 0.00 | 55 | 1018.0 |
| 20260503021213 | 54 | 281 | 0.0 | 4.0 | 0.00 | 0.00 | 0.00 | 55 | 1017.9 |
| 20260503020710 | 55 | 262 | 1.0 | 4.0 | 0.00 | 0.00 | 0.00 | 54 | 1017.9 |
| 20260503020228 | 55 | 163 | 0.0 | 2.0 | 0.00 | 0.00 | 0.00 | 53 | 1017.9 |
| 20260503015724 | 55 | 288 | 1.0 | 4.0 | 0.00 | 0.00 | 0.00 | 51 | 1017.9 |
| 20260503015221 | 56 | 226 | 1.0 | 3.0 | 0.00 | 0.00 | 0.00 | 50 | 1017.9 |
| 20260503014722 | 56 | 251 | 1.0 | 3.0 | 0.00 | 0.00 | 0.00 | 48 | 1017.9 |
| 20260503014221 | 56 | 257 | 0.0 | 5.0 | 0.00 | 0.00 | 0.00 | 47 | 1017.9 |
| 20260503013718 | 57 | 250 | 2.0 | 5.0 | 0.00 | 0.00 | 0.00 | 46 | 1018.0 |
| 20260503013215 | 57 | 126 | 1.0 | 5.0 | 0.00 | 0.00 | 0.00 | 45 | 1017.9 |
| 20260503012713 | 57 | 218 | 1.0 | 5.0 | 0.00 | 0.00 | 0.00 | 44 | 1017.9 |
| 20260503012211 | 58 | 286 | 0.0 | 3.0 | 0.00 | 0.00 | 0.00 | 43 | 1018.1 |
| 20260503011709 | 58 | 257 | 2.0 | 4.0 | 0.00 | 0.00 | 0.00 | 42 | 1018.0 |
| 20260503011207 | 58 | 262 | 1.0 | 5.0 | 0.00 | 0.00 | 0.00 | 42 | 1018.0 |
| 20260503010745 | 58 | 257 | 2.0 | 5.0 | 0.00 | 0.00 | 0.00 | 41 | 1018.0 |
| 20260503010222 | 59 | 252 | 2.0 | 5.0 | 0.00 | 0.00 | 0.00 | 41 | 1017.9 |
| 20260503005721 | 59 | 167 | 1.0 | 5.0 | 0.00 | 0.00 | 0.00 | 39 | 1018.1 |
| 20260503005217 | 59 | 237 | 1.0 | 7.0 | 0.00 | 0.00 | 0.00 | 38 | 1018.2 |
| 20260503004714 | 60 | 263 | 2.0 | 7.0 | 0.00 | 0.00 | 0.00 | 37 | 1018.2 |
| 20260503004212 | 60 | 300 | 1.0 | 6.0 | 0.00 | 0.00 | 0.00 | 36 | 1018.1 |
| 20260503003730 | 60 | 229 | 2.0 | 5.0 | 0.00 | 0.00 | 0.00 | 35 | 1018.1 |
| 20260503003207 | 60 | 210 | 2.0 | 5.0 | 0.00 | 0.00 | 0.00 | 35 | 1018.2 |
| 20260503002213 | 61 | 261 | 0.0 | 4.0 | 0.00 | 0.00 | 0.00 | 35 | 1018.2 |
| 20260503001710 | 62 | 252 | 1.0 | 4.0 | 0.00 | 0.00 | 0.00 | 35 | 1018.2 |
| 20260503001208 | 62 | 254 | 1.0 | 4.0 | 0.00 | 0.00 | 0.00 | 34 | 1018.2 |
| 20260503000746 | 62 | 156 | 1.0 | 3.0 | 0.00 | 0.00 | 0.00 | 34 | 1018.1 |
| 20260503000225 | 62 | 252 | 1.0 | 6.0 | 0.00 | 0.00 | 0.00 | 34 | 1018.2 |
| 20260502235722 | 63 | 160 | 1.0 | 6.0 | 0.00 | 0.00 | 0.00 | 34 | 1018.1 |
| 20260502235219 | 63 | 155 | 1.0 | 4.0 | 0.00 | 0.00 | 0.00 | 33 | 1018.2 |
| 20260502234736 | 63 | 297 | 2.0 | 4.0 | 0.00 | 0.00 | 0.00 | 33 | 1018.2 |
| 20260502234234 | 64 | 258 | 1.0 | 3.0 | 0.00 | 0.00 | 0.00 | 32 | 1018.3 |
| 20260502233709 | 64 | 246 | 1.0 | 4.0 | 0.00 | 0.00 | 0.00 | 33 | 1018.2 |
| 20260502233207 | 64 | 254 | 1.0 | 4.0 | 0.00 | 0.00 | 0.00 | 31 | 1018.2 |
| 20260502232745 | 64 | 277 | 1.0 | 3.0 | 0.00 | 0.00 | 0.00 | 33 | 1018.2 |
| 20260502232241 | 64 | 257 | 1.0 | 3.0 | 0.00 | 0.00 | 0.00 | 32 | 1018.3 |
| 20260502231717 | 64 | 248 | 1.0 | 7.0 | 0.00 | 0.00 | 0.00 | 33 | 1018.3 |
| 20260502231215 | 64 | 257 | 2.0 | 7.0 | 0.00 | 0.00 | 0.00 | 33 | 1018.3 |
| 20260502230211 | 64 | 224 | 2.0 | 5.0 | 0.00 | 0.00 | 0.00 | 32 | 1018.3 |
| 20260502225709 | 64 | 246 | 2.0 | 5.0 | 0.00 | 0.00 | 0.00 | 32 | 1018.3 |
| 20260502225227 | 65 | 250 | 2.0 | 4.0 | 0.00 | 0.00 | 0.00 | 30 | 1018.5 |
| 20260502224708 | 65 | 179 | 1.0 | 4.0 | 0.00 | 0.00 | 0.00 | 31 | 1018.6 |
| 20260502224228 | 65 | 160 | 1.0 | 5.0 | 0.00 | 0.00 | 0.00 | 32 | 1018.6 |
| 20260502223726 | 64 | 253 | 1.0 | 5.0 | 0.00 | 0.00 | 0.00 | 31 | 1018.7 |
| 20260502223223 | 65 | 281 | 1.0 | 8.0 | 0.00 | 0.00 | 0.00 | 31 | 1018.8 |
| 20260502222721 | 66 | 19 | 2.0 | 8.0 | 0.00 | 0.00 | 0.00 | 29 | 1018.9 |
| 20260502222218 | 66 | 237 | 2.0 | 6.0 | 0.00 | 0.00 | 0.00 | 30 | 1018.9 |
| 20260502221715 | 66 | 283 | 1.0 | 5.0 | 0.00 | 0.00 | 0.00 | 29 | 1019.1 |
| 20260502221212 | 67 | 236 | 1.0 | 3.0 | 0.00 | 0.00 | 0.00 | 28 | 1019.1 |
| 20260502220727 | 67 | 285 | 1.0 | 4.0 | 0.00 | 0.00 | 0.00 | 26 | 1019.2 |
| 20260502220225 | 67 | 254 | 1.0 | 7.0 | 0.00 | 0.00 | 0.00 | 26 | 1019.1 |
| 20260502215723 | 67 | 248 | 2.0 | 7.0 | 0.00 | 0.00 | 0.00 | 25 | 1019.2 |
| 20260502215221 | 67 | 255 | 1.0 | 4.0 | 0.00 | 0.00 | 0.00 | 24 | 1019.2 |
| 20260502214719 | 67 | 240 | 1.0 | 4.0 | 0.00 | 0.00 | 0.00 | 23 | 1019.2 |
| 20260502214217 | 67 | 91 | 1.0 | 7.0 | 0.00 | 0.00 | 0.00 | 23 | 1019.3 |
| 20260502213715 | 68 | 290 | 2.0 | 7.0 | 0.00 | 0.00 | 0.00 | 24 | 1019.3 |
| 20260502213217 | 68 | 198 | 2.0 | 5.0 | 0.00 | 0.00 | 0.00 | 24 | 1019.3 |
| 20260502212710 | 67 | 262 | 1.0 | 4.0 | 0.00 | 0.00 | 0.00 | 24 | 1019.4 |
| 20260502212212 | 68 | 168 | 1.0 | 3.0 | 0.00 | 0.00 | 0.00 | 23 | 1019.5 |
| 20260502211709 | 67 | 77 | 1.0 | 5.0 | 0.00 | 0.00 | 0.00 | 24 | 1019.5 |
| 20260502211248 | 67 | 68 | 1.0 | 6.0 | 0.00 | 0.00 | 0.00 | 22 | 1019.6 |
| 20260502210725 | 68 | 188 | 1.0 | 6.0 | 0.00 | 0.00 | 0.00 | 23 | 1019.7 |
| 20260502210242 | 69 | 40 | 2.0 | 3.0 | 0.00 | 0.00 | 0.00 | 23 | 1019.7 |
| 20260502205720 | 69 | 35 | 2.0 | 3.0 | 0.00 | 0.00 | 0.00 | 23 | 1019.6 |
| 20260502205216 | 68 | 50 | 1.0 | 3.0 | 0.00 | 0.00 | 0.00 | 23 | 1019.7 |
| 20260502204714 | 68 | 96 | 0.0 | 6.0 | 0.00 | 0.00 | 0.00 | 25 | 1019.8 |
| 20260502204211 | 67 | 237 | 2.0 | 6.0 | 0.00 | 0.00 | 0.00 | 23 | 1019.8 |
| 20260502203728 | 67 | 263 | 2.0 | 7.0 | 0.00 | 0.00 | 0.00 | 23 | 1019.9 |
| 20260502203226 | 68 | 283 | 1.0 | 7.0 | 0.00 | 0.00 | 0.00 | 21 | 1020.0 |
| 20260502202724 | 68 | 223 | 1.0 | 6.0 | 0.00 | 0.00 | 0.00 | 25 | 1020.0 |
| 20260502202221 | 68 | 255 | 1.0 | 4.0 | 0.00 | 0.00 | 0.00 | 24 | 1020.1 |
| 20260502201718 | 68 | 201 | 2.0 | 4.0 | 0.00 | 0.00 | 0.00 | 24 | 1020.1 |
| 20260502201216 | 67 | 131 | 1.0 | 5.0 | 0.00 | 0.00 | 0.00 | 22 | 1020.2 |
| 20260502200714 | 67 | 219 | 1.0 | 8.0 | 0.00 | 0.00 | 0.00 | 23 | 1020.3 |
| 20260502200212 | 67 | 225 | 1.0 | 8.0 | 0.00 | 0.00 | 0.00 | 22 | 1020.4 |
| 20260502195715 | 67 | 265 | 1.0 | 6.0 | 0.00 | 0.00 | 0.00 | 24 | 1020.3 |
| 20260502195213 | 67 | 236 | 2.0 | 4.0 | 0.00 | 0.00 | 0.00 | 22 | 1020.5 |
| 20260502194710 | 67 | 143 | 1.0 | 3.0 | 0.00 | 0.00 | 0.00 | 22 | 1020.5 |
| 20260502194229 | 68 | 59 | 2.0 | 3.0 | 0.00 | 0.00 | 0.00 | 22 | 1020.5 |
| 20260502193726 | 68 | 46 | 1.0 | 4.0 | 0.00 | 0.00 | 0.00 | 23 | 1020.5 |
| 20260502193224 | 68 | 277 | 2.0 | 4.0 | 0.00 | 0.00 | 0.00 | 21 | 1020.5 |
| 20260502192723 | 68 | 79 | 1.0 | 4.0 | 0.00 | 0.00 | 0.00 | 21 | 1020.4 |
| 20260502192221 | 67 | 65 | 1.0 | 4.0 | 0.00 | 0.00 | 0.00 | 19 | 1020.4 |
| 20260502191739 | 67 | 69 | 1.0 | 4.0 | 0.00 | 0.00 | 0.00 | 19 | 1020.5 |
| 20260502191216 | 67 | 135 | 1.0 | 3.0 | 0.00 | 0.00 | 0.00 | 19 | 1020.4 |
| 20260502190714 | 67 | 110 | 2.0 | 5.0 | 0.00 | 0.00 | 0.00 | 19 | 1020.5 |
| 20260502190211 | 68 | 153 | 1.0 | 5.0 | 0.00 | 0.00 | 0.00 | 18 | 1020.7 |
| 20260502185709 | 68 | 268 | 1.0 | 3.0 | 0.00 | 0.00 | 0.00 | 22 | 1020.7 |
| 20260502185248 | 67 | 237 | 1.0 | 5.0 | 0.00 | 0.00 | 0.00 | 19 | 1020.7 |
| 20260502184724 | 67 | 63 | 1.0 | 7.0 | 0.00 | 0.00 | 0.00 | 20 | 1020.8 |
| 20260502184222 | 67 | 172 | 2.0 | 7.0 | 0.00 | 0.00 | 0.00 | 18 | 1020.7 |
| 20260502183720 | 67 | 238 | 2.0 | 6.0 | 0.00 | 0.00 | 0.00 | 19 | 1020.7 |
| 20260502183221 | 68 | 230 | 1.0 | 3.0 | 0.00 | 0.00 | 0.00 | 18 | 1020.8 |
| 20260502182717 | 67 | 91 | 1.0 | 3.0 | 0.00 | 0.00 | 0.00 | 21 | 1020.9 |
| 20260502182235 | 67 | 142 | 1.0 | 7.0 | 0.00 | 0.00 | 0.00 | 19 | 1020.9 |
| 20260502181711 | 66 | 227 | 2.0 | 7.0 | 0.00 | 0.00 | 0.00 | 20 | 1021.0 |
| 20260502181228 | 66 | 346 | 2.0 | 5.0 | 0.00 | 0.00 | 0.00 | 18 | 1021.0 |
| 20260502180727 | 66 | 248 | 1.0 | 3.0 | 0.00 | 0.00 | 0.00 | 19 | 1021.1 |
| 20260502180244 | 67 | 248 | 1.0 | 2.0 | 0.00 | 0.00 | 0.00 | 18 | 1021.1 |
| 20260502170218 | 62 | 63 | 1.0 | 4.0 | 0.00 | 0.00 | 0.00 | 21 | 1021.3 |
| 20260502164230 | 62 | 179 | 1.0 | 5.0 | 0.00 | 0.00 | 0.00 | 22 | 1021.4 |
| 20260502163727 | 62 | 240 | 1.0 | 4.0 | 0.00 | 0.00 | 0.00 | 22 | 1021.4 |
| 20260502163224 | 62 | 226 | 2.0 | 4.0 | 0.00 | 0.00 | 0.00 | 21 | 1021.5 |
| 20260502162743 | 62 | 239 | 1.0 | 4.0 | 0.00 | 0.00 | 0.00 | 22 | 1021.6 |
| 20260502162219 | 61 | 79 | 1.0 | 4.0 | 0.00 | 0.00 | 0.00 | 22 | 1021.4 |
| 20260502161717 | 61 | 64 | 2.0 | 4.0 | 0.00 | 0.00 | 0.00 | 22 | 1021.3 |
| 20260502161215 | 62 | 77 | 1.0 | 4.0 | 0.00 | 0.00 | 0.00 | 23 | 1021.3 |
| 20260502160713 | 61 | 53 | 1.0 | 4.0 | 0.00 | 0.00 | 0.00 | 22 | 1021.3 |
| 20260502160210 | 61 | 65 | 1.0 | 3.0 | 0.00 | 0.00 | 0.00 | 22 | 1021.3 |
| 20260502152229 | 60 | 53 | 1.0 | 4.0 | 0.00 | 0.00 | 0.00 | 25 | 1021.1 |
| 20260502151727 | 59 | 57 | 0.0 | 2.0 | 0.00 | 0.00 | 0.00 | 26 | 1021.1 |
| 20260502151225 | 58 | 53 | 1.0 | 1.0 | 0.00 | 0.00 | 0.00 | 27 | 1021.2 |
| 20260502150722 | 58 | 48 | 0.0 | 1.0 | 0.00 | 0.00 | 0.00 | 28 | 1021.1 |
| 20260502150219 | 57 | 45 | 0.0 | 1.0 | 0.00 | 0.00 | 0.00 | 28 | 1021.1 |
| 20260502130721 | 43 | 258 | 0.0 | 1.0 | 0.00 | 0.00 | 0.00 | 41 | 1020.4 |
| 20260502130219 | 42 | 258 | 0.0 | 1.0 | 0.00 | 0.00 | 0.00 | 41 | 1020.4 |
| 20260502123749 | 42 | 258 | 0.0 | 1.0 | 0.00 | 0.00 | 0.00 | 41 | 1020.2 |
| 20260502123226 | 42 | 258 | 0.0 | 1.0 | 0.00 | 0.00 | 0.00 | 41 | 1020.2 |
| 20260502122724 | 42 | 258 | 0.0 | 1.0 | 0.00 | 0.00 | 0.00 | 41 | 1020.2 |
| 20260502122227 | 43 | 258 | 0.0 | 1.0 | 0.00 | 0.00 | 0.00 | 41 | 1020.2 |
| 20260502121725 | 43 | 257 | 0.0 | 1.0 | 0.00 | 0.00 | 0.00 | 41 | 1020.1 |
| 20260502121223 | 43 | 248 | 0.0 | 1.0 | 0.00 | 0.00 | 0.00 | 40 | 1020.2 |
| 20260502120720 | 43 | 248 | 0.0 | 0.0 | 0.00 | 0.00 | 0.00 | 40 | 1020.2 |
| 20260502120217 | 43 | 248 | 0.0 | 1.0 | 0.00 | 0.00 | 0.00 | 41 | 1020.2 |
| 20260502115715 | 42 | 248 | 0.0 | 1.0 | 0.00 | 0.00 | 0.00 | 41 | 1020.2 |
| 20260502115213 | 43 | 248 | 0.0 | 1.0 | 0.00 | 0.00 | 0.00 | 41 | 1020.2 |
| 20260502114732 | 42 | 248 | 0.0 | 1.0 | 0.00 | 0.00 | 0.00 | 41 | 1020.2 |
| 20260502114229 | 42 | 248 | 0.0 | 1.0 | 0.00 | 0.00 | 0.00 | 41 | 1020.2 |
| 20260502113727 | 42 | 248 | 0.0 | 1.0 | 0.00 | 0.00 | 0.00 | 42 | 1020.2 |
| 20260502113245 | 43 | 248 | 0.0 | 1.0 | 0.00 | 0.00 | 0.00 | 42 | 1020.2 |
| 20260502112741 | 42 | 248 | 0.0 | 1.0 | 0.00 | 0.00 | 0.00 | 41 | 1020.2 |
| 20260502112217 | 42 | 248 | 0.0 | 1.0 | 0.00 | 0.00 | 0.00 | 42 | 1020.2 |
| 20260502111713 | 43 | 249 | 0.0 | 1.0 | 0.00 | 0.00 | 0.00 | 42 | 1020.2 |
| 20260502111232 | 42 | 248 | 0.0 | 1.0 | 0.00 | 0.00 | 0.00 | 42 | 1020.2 |
| 20260502110729 | 43 | 248 | 0.0 | 1.0 | 0.00 | 0.00 | 0.00 | 42 | 1020.2 |
| 20260502110227 | 43 | 249 | 0.0 | 1.0 | 0.00 | 0.00 | 0.00 | 40 | 1020.2 |
| 20260502105730 | 43 | 249 | 0.0 | 1.0 | 0.00 | 0.00 | 0.00 | 41 | 1020.2 |
| 20260502105247 | 43 | 221 | 0.0 | 0.0 | 0.00 | 0.00 | 0.00 | 40 | 1020.2 |
| 20260502104724 | 43 | 221 | 0.0 | 1.0 | 0.00 | 0.00 | 0.00 | 41 | 1020.2 |
| 20260502104223 | 43 | 221 | 0.0 | 1.0 | 0.00 | 0.00 | 0.00 | 40 | 1020.2 |
| 20260502103720 | 43 | 221 | 0.0 | 1.0 | 0.00 | 0.00 | 0.00 | 40 | 1020.2 |
| 20260502103238 | 43 | 221 | 0.0 | 0.0 | 0.00 | 0.00 | 0.00 | 40 | 1020.2 |
| 20260502102714 | 43 | 221 | 0.0 | 0.0 | 0.00 | 0.00 | 0.00 | 40 | 1020.2 |
| 20260502102232 | 43 | 221 | 0.0 | 1.0 | 0.00 | 0.00 | 0.00 | 40 | 1020.2 |
| 20260502101730 | 43 | 221 | 0.0 | 1.0 | 0.00 | 0.00 | 0.00 | 40 | 1020.2 |
| 20260502101248 | 44 | 221 | 0.0 | 1.0 | 0.00 | 0.00 | 0.00 | 40 | 1020.2 |
| 20260502100725 | 44 | 217 | 0.0 | 1.0 | 0.00 | 0.00 | 0.00 | 39 | 1020.2 |
| 20260502100223 | 44 | 217 | 0.0 | 1.0 | 0.00 | 0.00 | 0.00 | 39 | 1020.2 |
| 20260502091225 | 45 | 204 | 0.0 | 0.0 | 0.00 | 0.00 | 0.00 | 38 | 1020.6 |
| 20260502090722 | 45 | 204 | 0.0 | 0.0 | 0.00 | 0.00 | 0.00 | 37 | 1020.5 |
| 20260502090231 | 45 | 204 | 0.0 | 0.0 | 0.00 | 0.00 | 0.00 | 37 | 1020.7 |
| 20260502071115 | 47 | 196 | 0.0 | 0.0 | 0.00 | 0.00 | 0.00 | 36 | 1021.0 |
| 20260502070634 | 48 | 196 | 0.0 | 0.0 | 0.00 | 0.00 | 0.00 | 36 | 1021.0 |
| 20260502070131 | 48 | 196 | 0.0 | 0.0 | 0.00 | 0.00 | 0.00 | 36 | 1021.0 |
| 20260502065630 | 49 | 196 | 0.0 | 0.0 | 0.00 | 0.00 | 0.00 | 33 | 1021.0 |
| 20260502065128 | 49 | 196 | 0.0 | 0.0 | 0.00 | 0.00 | 0.00 | 32 | 1021.0 |
| 20260502064646 | 49 | 196 | 0.0 | 0.0 | 0.00 | 0.00 | 0.00 | 32 | 1021.0 |
| 20260502064128 | 49 | 196 | 0.0 | 0.0 | 0.00 | 0.00 | 0.00 | 32 | 1021.0 |
| 20260502063625 | 49 | 196 | 0.0 | 0.0 | 0.00 | 0.00 | 0.00 | 32 | 1021.0 |
| 20260502063122 | 49 | 196 | 0.0 | 0.0 | 0.00 | 0.00 | 0.00 | 31 | 1021.0 |
| 20260502062620 | 49 | 195 | 0.0 | 0.0 | 0.00 | 0.00 | 0.00 | 31 | 1021.0 |
| 20260502062117 | 49 | 191 | 0.0 | 1.0 | 0.00 | 0.00 | 0.00 | 31 | 1021.1 |
| 20260502061615 | 49 | 191 | 0.0 | 1.0 | 0.00 | 0.00 | 0.00 | 31 | 1021.0 |
| 20260502061134 | 49 | 228 | 0.0 | 1.0 | 0.00 | 0.00 | 0.00 | 31 | 1021.0 |
| 20260502060632 | 49 | 234 | 0.0 | 1.0 | 0.00 | 0.00 | 0.00 | 31 | 1021.0 |
| 20260502060130 | 50 | 236 | 0.0 | 1.0 | 0.00 | 0.00 | 0.00 | 31 | 1021.0 |
| 20260502055650 | 50 | 236 | 0.0 | 1.0 | 0.00 | 0.00 | 0.00 | 30 | 1021.0 |
| 20260502055127 | 50 | 236 | 0.0 | 1.0 | 0.00 | 0.00 | 0.00 | 31 | 1021.0 |
| 20260502054625 | 49 | 236 | 0.0 | 1.0 | 0.00 | 0.00 | 0.00 | 31 | 1021.0 |
| 20260502054122 | 50 | 236 | 0.0 | 1.0 | 0.00 | 0.00 | 0.00 | 31 | 1021.0 |
| 20260502053640 | 49 | 236 | 0.0 | 1.0 | 0.00 | 0.00 | 0.00 | 31 | 1021.0 |
| 20260502053136 | 49 | 214 | 0.0 | 1.0 | 0.00 | 0.00 | 0.00 | 31 | 1021.0 |
| 20260502052653 | 49 | 214 | 0.0 | 1.0 | 0.00 | 0.00 | 0.00 | 31 | 1021.0 |
| 20260502052150 | 49 | 205 | 0.0 | 0.0 | 0.00 | 0.00 | 0.00 | 32 | 1021.0 |
| 20260502051648 | 49 | 205 | 0.0 | 0.0 | 0.00 | 0.00 | 0.00 | 32 | 1021.1 |
| 20260502051125 | 49 | 251 | 0.0 | 0.0 | 0.00 | 0.00 | 0.00 | 33 | 1021.1 |
| 20260502050623 | 49 | 251 | 0.0 | 1.0 | 0.00 | 0.00 | 0.00 | 33 | 1021.1 |
| 20260502050121 | 49 | 251 | 0.0 | 1.0 | 0.00 | 0.00 | 0.00 | 33 | 1021.0 |
| 20260502045622 | 49 | 251 | 0.0 | 1.0 | 0.00 | 0.00 | 0.00 | 34 | 1021.0 |
| 20260502045120 | 48 | 251 | 0.0 | 1.0 | 0.00 | 0.00 | 0.00 | 35 | 1021.0 |
| 20260502044637 | 47 | 251 | 0.0 | 1.0 | 0.00 | 0.00 | 0.00 | 41 | 1021.0 |
| 20260502044115 | 47 | 251 | 0.0 | 0.0 | 0.00 | 0.00 | 0.00 | 44 | 1021.0 |
| 20260502043633 | 47 | 251 | 0.0 | 0.0 | 0.00 | 0.00 | 0.00 | 44 | 1020.9 |
| 20260502043151 | 48 | 251 | 0.0 | 0.0 | 0.00 | 0.00 | 0.00 | 45 | 1020.9 |
| 20260502042628 | 48 | 251 | 0.0 | 0.0 | 0.00 | 0.00 | 0.00 | 45 | 1020.8 |
| 20260502042125 | 48 | 251 | 0.0 | 0.0 | 0.00 | 0.00 | 0.00 | 44 | 1020.7 |
| 20260502041622 | 48 | 251 | 0.0 | 0.0 | 0.00 | 0.00 | 0.00 | 44 | 1020.7 |
| 20260502041121 | 48 | 251 | 0.0 | 0.0 | 0.00 | 0.00 | 0.00 | 44 | 1020.7 |
| 20260502040638 | 48 | 251 | 0.0 | 0.0 | 0.00 | 0.00 | 0.00 | 44 | 1020.5 |
| 20260502040115 | 48 | 251 | 0.0 | 1.0 | 0.00 | 0.00 | 0.00 | 45 | 1020.5 |
| 20260502035654 | 48 | 251 | 0.0 | 1.0 | 0.00 | 0.00 | 0.00 | 45 | 1020.4 |
| 20260502035151 | 49 | 251 | 0.0 | 1.0 | 0.00 | 0.00 | 0.00 | 45 | 1020.3 |
| 20260502034628 | 49 | 251 | 1.0 | 1.0 | 0.00 | 0.00 | 0.00 | 45 | 1020.3 |
| 20260502034126 | 48 | 251 | 0.0 | 2.0 | 0.00 | 0.00 | 0.00 | 46 | 1020.3 |
| 20260502033623 | 48 | 252 | 0.0 | 2.0 | 0.00 | 0.00 | 0.00 | 46 | 1020.2 |
| 20260502033121 | 48 | 248 | 0.0 | 1.0 | 0.00 | 0.00 | 0.00 | 46 | 1020.2 |